Hammond, LA

8:40 AM CST on January 22, 2018 (GMT -0600)
Hammond Municipal

Weather History for KHDC - February, 2014

Change the Weather History Date:

Thursday, February 20, 2014

  Actual Average (KMSY) Record (KMSY)
Temperature  
Mean Temperature 75 °F -  
Max Temperature 84 °F 68 °F 82 °F (1971)
Min Temperature 66 °F 48 °F 26 °F (1978)
Cooling Degree Days 10    
Growing Degree Days 25 (Base 50)    
Moisture  
Dew Point 65 °F    
Average Humidity 78    
Maximum Humidity 94    
Minimum Humidity 45    
Precipitation  
Precipitation 0.01 in - - ()
Sea Level Pressure  
Sea Level Pressure 29.92 in    
Wind  
Wind Speed 11 mph (South)    
Max Wind Speed 24 mph    
Max Gust Speed 32 mph    
Visibility 9 miles    
Events Rain , Thunderstorm    
Averages and records for this station are not official NWS values.
T = Trace of Precipitation, MM = Missing Value Source: NWS Daily Summary

Daily Weather History Graph

Daily Weather History Graph

Search for Another Location

Airport or City:

Trip Planner

Search our weather history database for the weather conditions in past years. The results will help you decide how hot, cold, wet, or windy it might be!

Date:

Astronomy

Feb. 20, 2014 Rise Set
Actual Time 6:37 AM CST 5:53 PM CST
Civil Twilight 6:12 AM CST 6:18 PM CST
Nautical Twilight 5:44 AM CST 6:46 PM CST
Astronomical Twilight 5:16 AM CST 7:14 PM CST
Moon 11:21 PM CST (2/20) 9:44 AM CST (2/20)
Length of Visible Light 12h 05m
Length of Day
11h 16m
Waning Gibbous, 70% of the Moon is Illuminated
Feb 20
Waning Gibbous
Feb 22
Last Quarter
Mar 1
New
Mar 8
First Quarter
Mar 16
Full

Hourly Weather History & Observations

Time (CST) Temp. Heat Index Dew Point Humidity Pressure Visibility Wind Dir Wind Speed Gust Speed Precip Events Conditions
12:15 AM 66.2 °F - 64.4 °F 94% 29.97 in 7.0 mi SSE 10.4 mph - N/A   Overcast
12:35 AM 66.2 °F - 64.4 °F 94% 29.97 in 5.0 mi SSE 8.1 mph - N/A   Overcast
12:55 AM 66.2 °F - 64.4 °F 94% 29.96 in 5.0 mi SSE 6.9 mph - N/A   Overcast
1:15 AM 66.2 °F - 64.4 °F 94% 29.96 in 5.0 mi SSE 6.9 mph - N/A   Overcast
1:35 AM 66.2 °F - 64.4 °F 94% 29.96 in 7.0 mi SSE 10.4 mph - N/A   Overcast
1:55 AM 68.0 °F - 64.4 °F 88% 29.95 in 7.0 mi SSE 10.4 mph - N/A   Overcast
2:15 AM 68.0 °F - 64.4 °F 88% 29.95 in 7.0 mi SSE 8.1 mph - N/A   Overcast
2:35 AM 68.0 °F - 64.4 °F 88% 29.95 in 10.0 mi SSE 9.2 mph - N/A   Overcast
2:55 AM 68.0 °F - 64.4 °F 88% 29.95 in 10.0 mi SSE 8.1 mph - N/A   Overcast
3:15 AM 68.0 °F - 64.4 °F 88% 29.95 in 7.0 mi SSE 8.1 mph - N/A   Overcast
3:35 AM 66.2 °F - 62.6 °F 88% 29.94 in 7.0 mi SE 6.9 mph - N/A   Overcast
3:55 AM 66.2 °F - 64.4 °F 94% 29.95 in 7.0 mi SSE 5.8 mph - N/A   Overcast
4:15 AM 66.2 °F - 64.4 °F 94% 29.95 in 7.0 mi SSE 8.1 mph - N/A   Overcast
4:35 AM 66.2 °F - 64.4 °F 94% 29.95 in 5.0 mi SSE 10.4 mph - 0.01 in   Overcast
4:55 AM 66.2 °F - 64.4 °F 94% 29.95 in 4.0 mi SE 9.2 mph - 0.01 in   Overcast
5:15 AM 66.2 °F - 64.4 °F 94% 29.94 in 5.0 mi SSE 8.1 mph - N/A   Overcast
5:35 AM 66.2 °F - 64.4 °F 94% 29.94 in 5.0 mi SE 9.2 mph - N/A   Overcast
5:55 AM 66.2 °F - 64.4 °F 94% 29.95 in 5.0 mi SE 8.1 mph - N/A   Overcast
6:15 AM 66.2 °F - 64.4 °F 94% 29.95 in 7.0 mi SSE 8.1 mph - N/A   Overcast
6:35 AM 68.0 °F - 64.4 °F 88% 29.95 in 10.0 mi SSE 10.4 mph - N/A   Overcast
6:55 AM 68.0 °F - 64.4 °F 88% 29.96 in 7.0 mi SSE 10.4 mph - N/A   Overcast
7:15 AM 68.0 °F - 64.4 °F 88% 29.96 in 7.0 mi SSE 10.4 mph - N/A   Overcast
7:35 AM 68.0 °F - 64.4 °F 88% 29.97 in 10.0 mi SSE 9.2 mph - N/A   Overcast
7:55 AM 68.0 °F - 64.4 °F 88% 29.96 in 10.0 mi SSE 6.9 mph - N/A   Overcast
8:15 AM 69.8 °F - 64.4 °F 83% 29.97 in 10.0 mi South 9.2 mph - N/A   Overcast
8:35 AM 69.8 °F - 64.4 °F 83% 29.97 in 10.0 mi SSE 12.7 mph 17.3 mph N/A   Overcast
8:55 AM 71.6 °F - 64.4 °F 78% 29.97 in 10.0 mi SSE 10.4 mph - N/A   Overcast
9:15 AM 69.8 °F - 64.4 °F 83% 29.97 in 10.0 mi SSE 9.2 mph - N/A   Overcast
9:35 AM 71.6 °F - 64.4 °F 78% 29.97 in 10.0 mi South 9.2 mph - N/A   Overcast
9:55 AM 73.4 °F - 64.4 °F 73% 29.98 in 10.0 mi South 11.5 mph - N/A   Overcast
10:15 AM 73.4 °F - 64.4 °F 73% 29.98 in 10.0 mi South 11.5 mph 18.4 mph N/A   Overcast
10:35 AM 73.4 °F - 64.4 °F 73% 29.98 in 10.0 mi South 15.0 mph - N/A   Overcast
10:55 AM 75.2 °F - 64.4 °F 69% 29.98 in 10.0 mi South 12.7 mph 16.1 mph N/A   Mostly Cloudy
11:15 AM 77.0 °F - 64.4 °F 65% 29.96 in 10.0 mi SSW 16.1 mph 23.0 mph N/A   Scattered Clouds
11:35 AM 80.6 °F 81.8 °F 62.6 °F 54% 29.95 in 10.0 mi South 12.7 mph 25.3 mph N/A   Scattered Clouds
11:55 AM 82.4 °F 83.4 °F 62.6 °F 51% 29.94 in 10.0 mi South 24.2 mph 29.9 mph N/A   Scattered Clouds
12:15 PM 80.6 °F 81.5 °F 60.8 °F 51% 29.94 in 10.0 mi South 17.3 mph 32.2 mph N/A   Clear
12:35 PM 82.4 °F 82.9 °F 60.8 °F 48% 29.93 in 10.0 mi South 17.3 mph 31.1 mph N/A   Clear
12:55 PM 82.4 °F 82.9 °F 60.8 °F 48% 29.92 in 10.0 mi South 19.6 mph 29.9 mph N/A   Clear
1:15 PM 82.4 °F 82.9 °F 60.8 °F 48% 29.91 in 10.0 mi South 16.1 mph 32.2 mph N/A   Scattered Clouds
1:35 PM 84.2 °F 84.4 °F 60.8 °F 45% 29.90 in 10.0 mi South 12.7 mph 19.6 mph N/A   Mostly Cloudy
1:55 PM 80.6 °F 81.8 °F 62.6 °F 54% 29.90 in 10.0 mi South 19.6 mph 24.2 mph N/A   Mostly Cloudy
2:15 PM 80.6 °F 81.8 °F 62.6 °F 54% 29.90 in 10.0 mi South 20.7 mph 25.3 mph N/A   Mostly Cloudy
2:35 PM 80.6 °F 82.3 °F 64.4 °F 58% 29.89 in 10.0 mi SSW 18.4 mph 23.0 mph N/A   Mostly Cloudy
2:55 PM 80.6 °F 82.3 °F 64.4 °F 58% 29.89 in 10.0 mi South 16.1 mph 20.7 mph N/A   Mostly Cloudy
3:15 PM 80.6 °F 82.3 °F 64.4 °F 58% 29.88 in 10.0 mi South 16.1 mph 23.0 mph N/A   Scattered Clouds
3:35 PM 78.8 °F - 64.4 °F 61% 29.89 in 10.0 mi South 12.7 mph - N/A   Mostly Cloudy
3:55 PM 77.0 °F - 66.2 °F 69% 29.89 in 10.0 mi South 10.4 mph - N/A   Mostly Cloudy
4:15 PM 78.8 °F - 66.2 °F 65% 29.88 in 10.0 mi South 12.7 mph - N/A   Mostly Cloudy
4:35 PM 77.0 °F - 66.2 °F 69% 29.88 in 10.0 mi South 12.7 mph 20.7 mph N/A   Mostly Cloudy
4:55 PM 75.2 °F - 66.2 °F 73% 29.87 in 10.0 mi South 12.7 mph 20.7 mph N/A   Overcast
5:15 PM 75.2 °F - 66.2 °F 73% 29.87 in 10.0 mi South 16.1 mph - N/A Thunderstorm Overcast
5:35 PM 75.2 °F - 66.2 °F 73% 29.87 in 10.0 mi South 16.1 mph 23.0 mph N/A Thunderstorm Overcast
5:55 PM 75.2 °F - 66.2 °F 73% 29.86 in 10.0 mi SSE 15.0 mph 23.0 mph N/A   Overcast
6:15 PM 75.2 °F - 66.2 °F 73% 29.86 in 10.0 mi South 13.8 mph 25.3 mph N/A   Mostly Cloudy
6:35 PM 73.4 °F - 66.2 °F 78% 29.87 in 10.0 mi South 11.5 mph 18.4 mph N/A   Mostly Cloudy
6:55 PM 73.4 °F - 66.2 °F 78% 29.87 in 10.0 mi South 13.8 mph 23.0 mph N/A   Overcast
7:15 PM 73.4 °F - 66.2 °F 78% 29.85 in 10.0 mi South 17.3 mph 21.9 mph N/A Thunderstorm Overcast
7:35 PM 73.4 °F - 66.2 °F 78% 29.85 in 10.0 mi South 17.3 mph 23.0 mph N/A   Overcast
7:55 PM 73.4 °F - 66.2 °F 78% 29.86 in 10.0 mi South 16.1 mph 20.7 mph N/A Thunderstorm Overcast
8:15 PM 73.4 °F - 66.2 °F 78% 29.86 in 10.0 mi South 16.1 mph 20.7 mph N/A   Overcast
8:35 PM 73.4 °F - 66.2 °F 78% 29.86 in 10.0 mi South 19.6 mph 25.3 mph N/A   Overcast
8:55 PM 73.4 °F - 66.2 °F 78% 29.85 in 10.0 mi South 13.8 mph - N/A   Overcast
9:15 PM 73.4 °F - 66.2 °F 78% 29.86 in 10.0 mi South 12.7 mph 23.0 mph N/A Rain Light Rain
9:35 PM 71.6 °F - 66.2 °F 83% 29.87 in 10.0 mi South 15.0 mph - N/A Rain Light Rain
9:55 PM 71.6 °F - 68.0 °F 88% 29.87 in 5.0 mi South 10.4 mph 13.8 mph N/A Rain , Thunderstorm Light Thunderstorms and Rain
10:15 PM 71.6 °F - 68.0 °F 88% 29.88 in 10.0 mi South 12.7 mph 19.6 mph N/A Rain Light Rain
10:35 PM 71.6 °F - 66.2 °F 83% 29.88 in 10.0 mi SSW 12.7 mph - N/A Rain Light Rain
10:55 PM 71.6 °F - 68.0 °F 88% 29.89 in 10.0 mi SW 8.1 mph - N/A Rain , Thunderstorm Light Thunderstorms and Rain
11:15 PM 71.6 °F - 68.0 °F 88% 29.89 in 10.0 mi SSW 11.5 mph - N/A   Overcast
11:35 PM 71.6 °F - 68.0 °F 88% 29.90 in 7.0 mi SW 11.5 mph - N/A Rain , Thunderstorm Rain
11:55 PM 68.0 °F - 62.6 °F 83% 29.92 in 2.5 mi West 18.4 mph 25.3 mph N/A Rain , Thunderstorm Heavy Thunderstorms and Rain